Time,TemperatureF,DewpointF,PressureIn,WindDirection,WindDirectionDegrees,WindSpeedMPH,WindSpeedGustMPH,Humidity,HourlyPrecipIn,Conditions,Clouds,dailyrainin,SoftwareType,DateUTC
2013-09-24 00:12:00,50.0,36.0,-100.00,SE,138,4.0,5.0,59,0.00,,,0.00,,2013-09-24 06:12:00,
2013-09-24 00:42:00,47.0,35.0,-100.00,ESE,121,4.0,4.0,63,0.00,,,0.00,,2013-09-24 06:42:00,
2013-09-24 01:43:00,45.0,36.0,-100.00,SE,124,1.0,2.0,68,0.00,,,0.00,,2013-09-24 07:43:00,
2013-09-24 02:42:00,43.0,34.0,-100.00,SSW,195,5.0,6.0,71,0.00,,,0.00,,2013-09-24 08:42:00,
2013-09-24 03:11:00,43.0,34.0,-100.00,SSW,200,3.0,4.0,70,0.00,,,0.00,,2013-09-24 09:11:00,
2013-09-24 04:13:00,41.0,34.0,-100.00,SSW,213,4.0,5.0,76,0.00,,,0.00,,2013-09-24 10:13:00,
2013-09-24 04:42:00,40.0,34.0,-100.00,SSW,213,4.0,6.0,77,0.00,,,0.00,,2013-09-24 10:42:00,
2013-09-24 05:11:00,40.0,34.0,-100.00,SSE,167,2.0,2.0,78,0.00,,,0.00,,2013-09-24 11:11:00,
2013-09-24 05:42:00,41.0,34.0,-100.00,SSW,200,2.0,3.0,76,0.00,,,0.00,,2013-09-24 11:42:00,
2013-09-24 06:12:00,40.0,34.0,-100.00,SSW,192,3.0,4.0,78,0.00,,,0.00,,2013-09-24 12:12:00,
2013-09-24 06:42:00,40.0,34.0,-100.00,SSW,206,5.0,6.0,77,0.00,,,0.00,,2013-09-24 12:42:00,
2013-09-24 07:11:00,40.0,33.0,-100.00,SW,219,6.0,8.0,77,0.00,,,0.00,,2013-09-24 13:11:00,
2013-09-24 08:12:00,39.0,33.0,-100.00,SW,219,5.0,6.0,78,0.00,,,0.00,,2013-09-24 14:12:00,
2013-09-24 08:42:00,40.0,33.0,-100.00,SSW,205,5.0,7.0,77,0.00,,,0.00,,2013-09-24 14:42:00,
2013-09-24 09:11:00,43.0,35.0,-100.00,SSW,203,6.0,8.0,72,0.00,,,0.00,,2013-09-24 15:11:00,
2013-09-24 09:43:00,49.0,38.0,-100.00,SSW,202,4.0,6.0,65,0.00,,,0.00,,2013-09-24 15:43:00,
2013-09-24 10:13:00,54.0,36.0,-100.00,SSE,161,6.0,9.0,50,0.00,,,0.00,,2013-09-24 16:13:00,
2013-09-24 10:43:00,58.0,38.0,-100.00,South,169,5.0,9.0,48,0.00,,,0.00,,2013-09-24 16:43:00,
2013-09-24 11:12:00,59.0,37.0,-100.00,ESE,107,6.0,9.0,43,0.00,,,0.00,,2013-09-24 17:12:00,
2013-09-24 11:43:00,63.0,38.0,-100.00,ESE,120,8.0,10.0,39,0.00,,,0.00,,2013-09-24 17:43:00,
2013-09-24 12:12:00,66.0,35.0,-100.00,SSE,160,14.0,20.0,32,0.00,,,0.00,,2013-09-24 18:12:00,
2013-09-24 12:42:00,69.0,35.0,-100.00,SSE,164,14.0,18.0,28,0.00,,,0.00,,2013-09-24 18:42:00,
2013-09-24 13:11:00,70.0,35.0,-100.00,SSE,167,19.0,26.0,28,0.00,,,0.00,,2013-09-24 19:11:00,
2013-09-24 13:42:00,70.0,34.0,-100.00,SSE,158,18.0,22.0,26,0.00,,,0.00,,2013-09-24 19:42:00,
2013-09-24 14:11:00,70.0,33.0,-100.00,SSE,164,16.0,25.0,26,0.00,,,0.00,,2013-09-24 20:11:00,
2013-09-24 14:42:00,73.0,35.0,-100.00,SSW,193,19.0,28.0,25,0.00,,,0.00,,2013-09-24 20:42:00,
2013-09-24 15:12:00,74.0,35.0,-100.00,SSW,192,18.0,24.0,24,0.00,,,0.00,,2013-09-24 21:12:00,
2013-09-24 15:43:00,74.0,35.0,-100.00,SSW,209,17.0,23.0,24,0.00,,,0.00,,2013-09-24 21:43:00,
2013-09-24 16:13:00,70.0,32.0,-100.00,SW,219,15.0,21.0,24,0.00,,,0.00,,2013-09-24 22:13:00,
2013-09-24 16:43:00,70.0,29.0,-100.00,SSW,206,13.0,19.0,22,0.00,,,0.00,,2013-09-24 22:43:00,
2013-09-24 17:13:00,69.0,30.0,-100.00,SW,223,13.0,18.0,23,0.00,,,0.00,,2013-09-24 23:13:00,
2013-09-24 17:43:00,67.0,32.0,-100.00,WNW,292,4.0,6.0,28,0.00,,,0.00,,2013-09-24 23:43:00,
2013-09-24 18:12:00,67.0,32.0,-100.00,North,4,14.0,17.0,27,0.00,,,0.00,,2013-09-25 00:12:00,
2013-09-24 18:22:00,67.0,32.0,-100.00,North,4,14.0,17.0,27,0.00,,,0.00,,2013-09-25 00:22:00,
2013-09-24 18:42:00,65.0,32.0,-100.00,NNW,332,11.0,14.0,28,0.00,,,0.00,,2013-09-25 00:42:00,
2013-09-24 19:12:00,65.0,32.0,-100.00,NNW,333,9.0,11.0,29,0.00,,,0.00,,2013-09-25 01:12:00,
2013-09-24 19:42:00,61.0,34.0,-100.00,NW,309,4.0,5.0,36,0.00,,,0.00,,2013-09-25 01:42:00,
2013-09-24 19:52:00,61.0,34.0,-100.00,NW,309,4.0,5.0,36,0.00,,,0.00,,2013-09-25 01:52:00,
2013-09-24 20:12:00,59.0,33.0,-100.00,NNE,16,8.0,9.0,39,0.00,,,0.00,,2013-09-25 02:12:00,
2013-09-24 20:42:00,60.0,33.0,-100.00,North,1,12.0,15.0,35,0.00,,,0.00,,2013-09-25 02:42:00,
2013-09-24 21:11:00,60.0,34.0,-100.00,NNW,346,14.0,18.0,37,0.00,,,0.00,,2013-09-25 03:11:00,
2013-09-24 21:45:00,60.0,35.0,-100.00,North,356,14.0,17.0,39,0.00,,,0.00,,2013-09-25 03:45:00,
2013-09-24 22:14:00,58.0,38.0,-100.00,North,11,13.0,18.0,47,0.00,,,0.00,,2013-09-25 04:14:00,
2013-09-24 22:42:00,57.0,37.0,-100.00,North,0,15.0,18.0,48,0.00,,,0.00,,2013-09-25 04:42:00,
2013-09-24 23:12:00,57.0,36.0,-100.00,NNW,337,17.0,19.0,46,0.00,,,0.00,,2013-09-25 05:12:00,
2013-09-24 23:43:00,56.0,37.0,-100.00,North,359,11.0,15.0,49,0.00,,,0.00,,2013-09-25 05:43:00,